This is the latest recevied weather packets stored in our database for station/object NI4CE-10. If no packets are shown the sender has not sent any weather packets the latest 1 day(s).
| Time | Temp. | Humidity | Pressure | Rain* | Wind** | Luminosity | Snow |
|---|---|---|---|---|---|---|---|
| 1777995947 | 27.78° C | 100% | 1018.6 hPa | 0 mm | 3.13 m/s, 150° | - | - |
| 1777995647 | 27.22° C | 100% | 1018.6 hPa | 0 mm | 2.68 m/s, 91° | - | - |
| 1777995445 | 27.22° C | 100% | 1018.6 hPa | 0 mm | 0.89 m/s, 99° | - | - |
| 1777995347 | 27.22° C | 100% | 1018.6 hPa | 0 mm | 0.89 m/s, 99° | - | - |
| 1777995095 | 26.67° C | 100% | 1018.6 hPa | 0 mm | 2.24 m/s, 112° | - | - |
| 1777995047 | 26.67° C | 100% | 1018.6 hPa | 0 mm | 2.24 m/s, 112° | - | - |
| 1777994814 | 26.67° C | 100% | 1018.7 hPa | 0 mm | 2.68 m/s, 111° | - | - |
| 1777994747 | 26.67° C | 100% | 1018.7 hPa | 0 mm | 2.68 m/s, 111° | - | - |
| 1777994447 | 27.22° C | 100% | 1018.6 hPa | 0 mm | 1.79 m/s, 164° | - | - |
| 1777994232 | 27.22° C | 100% | 1018.6 hPa | 0 mm | 3.13 m/s, 150° | - | - |
| 1777994148 | 27.22° C | 100% | 1018.6 hPa | 0 mm | 3.13 m/s, 150° | - | - |
| 1777993958 | 27.78° C | 100% | 1018.7 hPa | 0 mm | 2.68 m/s, 90° | - | - |
| 1777993848 | 27.78° C | 100% | 1018.7 hPa | 0 mm | 2.68 m/s, 90° | - | - |
| 1777993614 | 28.33° C | 100% | 1018.7 hPa | 0 mm | 2.68 m/s, 82° | - | - |
| 1777993548 | 28.33° C | 100% | 1018.7 hPa | 0 mm | 2.68 m/s, 82° | - | - |
| 1777993390 | 27.22° C | 100% | 1018.7 hPa | 0 mm | 2.68 m/s, 81° | - | - |
| 1777993248 | 27.22° C | 100% | 1018.7 hPa | 0 mm | 2.68 m/s, 81° | - | - |
| 1777993046 | 26.67° C | 100% | 1018.7 hPa | 0 mm | 1.79 m/s, 63° | - | - |
| 1777992948 | 26.67° C | 100% | 1018.7 hPa | 0 mm | 1.79 m/s, 63° | - | - |
| 1777992699 | 27.78° C | 100% | 1018.6 hPa | 0 mm | 1.79 m/s, 97° | - | - |
| 1777992648 | 27.78° C | 100% | 1018.6 hPa | 0 mm | 1.79 m/s, 97° | - | - |
| 1777992412 | 26.67° C | 100% | 1018.5 hPa | 0 mm | 3.58 m/s, 160° | - | - |
| 1777992348 | 26.67° C | 100% | 1018.5 hPa | 0 mm | 3.58 m/s, 160° | - | - |
| 1777992048 | 27.22° C | 100% | 1018.5 hPa | 0 mm | 1.79 m/s, 105° | - | - |
| 1777991992 | 27.78° C | 100% | 1018.4 hPa | 0 mm | 2.68 m/s, 98° | - | - |
* Rain latest hour (hover to see other rain measurements)
** Current wind speed in m/s (hover to see current wind gust speed)